[[{"header":{"parameterUnit":"m.s-1","parameterCategory":1,"la1":30.2991,"la2":30.254,"lo1":-89.0895,"lo2":-89.0444,"dx":0.0017,"dy":0.0017,"nx":28,"ny":28,"refTime":"2022-11-13T15:00:00:Z","depth":0,"parameterNumber":2,"parameterNumberName":"U-component_of_WINDS"},"data":[0,0,0,0,0,0,0,0,0,0,0,0,0,0,0,0,0,0,0,0,0,0,0,0,0,0,0,0,0,0,0,0,0,0,0,0,0,0,0,0,0,0,0,0,0,0,0,0,0,0,0,0,0,0,0,0,0,0,-0.6779,-0.678,0,-0.6832,-0.6832,-0.6833,-0.6829,-0.6829,-0.6828,-0.6827,-0.6881,-0.6883,-0.6885,0,0,0,0,0,0,0,0,0,0,0,0,0,-0.6675,-0.6677,-0.6779,-0.678,-0.6781,-0.6832,-0.6832,-0.6833,-0.683,-0.6829,-0.6828,-0.6827,-0.688,-0.6883,-0.6886,0,0,0,0,0,0,0,0,0,0,0,0,0,-0.6723,-0.6678,-0.6779,-0.6785,-0.6786,-0.6831,-0.6832,-0.6833,-0.683,-0.6829,-0.6827,-0.6826,-0.688,-0.6883,-0.6886,-0.6929,0,0,-0.6896,-0.6897,0,0,0,0,0,0,0,0,-0.6721,-0.6727,-0.6784,-0.6785,-0.6786,-0.6823,-0.6815,-0.6865,-0.683,-0.6813,-0.6827,-0.6826,-0.6863,-0.6867,-0.688,-0.6932,-0.6934,-0.6896,-0.6898,-0.6899,-0.69,0,0,0,0,0,0,0,-0.6717,-0.6725,-0.68,-0.6784,-0.6786,-0.6785,-0.679,-0.6825,-0.6844,-0.6815,-0.6814,-0.6821,-0.6863,-0.6877,-0.6881,-0.6935,-0.6896,-0.6899,-0.6901,-0.6902,-0.7022,-0.7024,0,0,0,0,0,0,-0.6713,-0.6722,-0.6798,-0.6802,-0.675,-0.6787,-0.6794,-0.6812,-0.6843,-0.6847,-0.6822,-0.682,-0.6872,-0.6877,-0.6883,-0.6934,-0.6899,-0.6902,-0.6904,-0.7021,-0.7023,-0.7024,0,0,0,0,0,0,-0.671,-0.672,-0.6796,-0.6762,-0.6772,-0.679,-0.6811,-0.6814,-0.6827,-0.6849,-0.6852,-0.6832,-0.6871,-0.6878,-0.6917,-0.6936,-0.6904,-0.6907,-0.702,-0.7022,-0.7023,-0.7038,0,0,0,0,0,0,-0.6707,-0.6719,-0.6736,-0.6762,-0.6773,-0.683,-0.6813,-0.6816,-0.6833,-0.6832,-0.6859,-0.6863,-0.6871,-0.6912,-0.692,-0.694,-0.6909,-0.7018,-0.702,-0.7023,-0.7036,-0.704,-0.7044,0,0,0,0,0,-0.6704,-0.6738,-0.6737,-0.6746,-0.6795,-0.6831,-0.6838,-0.6846,-0.6834,-0.6851,-0.6865,-0.6862,-0.6932,-0.6916,-0.6925,-0.6946,-0.7017,-0.702,-0.7023,-0.7034,-0.7039,-0.7044,0,0,0,0,0,0,-0.6715,-0.6742,-0.6741,-0.6785,-0.6806,-0.6831,-0.6853,-0.6851,-0.6876,-0.6874,-0.6883,-0.6889,-0.6928,-0.6941,-0.6922,-0.6988,-0.6973,-0.6978,-0.6979,-0.6984,-0.6988,-0.6984,-0.6912,0,0,0,0,0,-0.6722,-0.6749,-0.6772,-0.6809,-0.6819,-0.6834,-0.685,-0.6854,-0.6876,-0.6885,-0.6902,-0.6923,-0.695,-0.6968,-0.6994,-0.7037,-0.7043,-0.7056,-0.706,-0.7063,-0.7067,-0.7089,-0.7095,-0.7033,-0.7033,-0.7033,0,0,-0.6738,-0.6756,-0.6773,-0.6811,-0.6828,-0.6855,-0.6842,-0.6872,-0.6892,-0.689,-0.6927,-0.694,-0.6964,-0.7005,-0.7024,-0.7017,-0.7085,-0.7066,-0.7069,-0.7071,-0.7093,-0.7099,-0.7104,-0.7035,-0.7035,-0.7034,0,0,-0.6781,-0.6798,-0.683,-0.6846,-0.6871,-0.688,-0.6888,-0.6913,-0.6921,-0.6958,-0.6957,-0.698,-0.7027,-0.7044,-0.7058,-0.7105,-0.7103,-0.7113,-0.7134,-0.7155,-0.716,-0.7165,-0.718,-0.7186,-0.7117,-0.7117,-0.7117,0,-0.6798,-0.6839,-0.6846,-0.6876,-0.6892,-0.6891,-0.6922,-0.6938,-0.697,-0.6981,-0.6973,-0.7029,-0.7046,-0.709,-0.7101,-0.7113,-0.7121,-0.711,-0.7159,-0.7163,-0.7168,-0.7183,-0.7189,-0.7118,-0.7118,-0.7118,-0.7118,0,-0.6858,-0.6887,-0.6909,-0.6939,-0.6958,-0.6989,-0.7,-0.7018,-0.7019,-0.7029,-0.7066,-0.7086,-0.7115,-0.7125,-0.7128,-0.7169,-0.7164,-0.7157,-0.7142,-0.7174,-0.7189,-0.7195,-0.712,-0.7119,-0.7119,-0.7119,0,0,-0.6911,-0.6943,-0.6951,-0.6964,-0.699,-0.7013,-0.7042,-0.707,-0.7085,-0.7106,-0.7131,-0.7169,-0.7162,-0.7179,-0.7183,-0.7202,-0.7236,-0.7193,-0.7193,-0.7199,-0.7281,-0.7286,-0.7292,-0.7234,-0.7235,-0.7236,-0.7279,0,-0.6956,-0.7009,-0.7015,-0.7062,-0.7088,-0.7085,-0.7111,-0.7129,-0.7139,-0.7161,-0.7172,-0.7198,-0.7188,-0.7197,-0.7216,-0.7228,-0.7252,-0.7225,-0.7257,-0.7258,-0.7251,-0.73,-0.7306,-0.7345,-0.7284,-0.7285,-0.7286,0,-0.7017,-0.7039,-0.7088,-0.7109,-0.712,-0.7143,-0.7168,-0.719,-0.721,-0.7215,-0.7232,-0.7234,-0.7263,-0.7246,-0.7286,-0.7267,-0.728,-0.7288,-0.729,-0.7293,-0.7274,-0.7304,-0.7358,-0.7364,-0.7295,-0.7294,-0.7294,0,-0.7049,-0.7092,-0.7126,-0.7137,-0.7163,-0.7179,-0.719,-0.7209,-0.7225,-0.7246,-0.7256,-0.7281,-0.7294,-0.7313,-0.732,-0.7307,-0.736,-0.7344,-0.7364,-0.7364,-0.7376,-0.7375,-0.7432,-0.7384,-0.7384,-0.7384,-0.7384,0,-0.7099,-0.713,-0.7141,-0.7162,-0.7195,-0.7201,-0.7234,-0.7244,-0.726,-0.7283,-0.7282,-0.7303,-0.7312,-0.7334,-0.7339,-0.7371,-0.7377,-0.7382,-0.7383,-0.7382,-0.7381,-0.7391,-0.7388,-0.7386,-0.7385,-0.7385,-0.7385,0,-0.7142,-0.7151,-0.7188,-0.7209,-0.7214,-0.7238,-0.7255,-0.7275,-0.7283,-0.7311,-0.7318,-0.7331,-0.7357,-0.7365,-0.7397,-0.74,-0.7437,-0.7436,-0.743,-0.743,-0.745,-0.7448,-0.7515,-0.7524,-0.7471,-0.7471,-0.7472,0,-0.7174,-0.7196,-0.7218,-0.7233,-0.7245,-0.7269,-0.7284,-0.729,-0.7306,-0.7329,-0.7346,-0.7372,-0.7392,-0.7433,-0.7445,-0.7468,-0.7468,-0.749,-0.7471,-0.7469,-0.7467,-0.7466,-0.7467,-0.7493,-0.7494,-0.7494,-0.7495,0,-0.7228,-0.7231,-0.7253,-0.7276,-0.7294,-0.7313,-0.7331,-0.7343,-0.7352,-0.7369,-0.7395,-0.7411,-0.7442,-0.7467,-0.749,-0.7501,-0.7499,-0.75,-0.7506,-0.7505,-0.75,-0.7502,-0.7439,-0.7499,-0.7498,-0.7498,-0.7498,-0.7498,-0.7266,-0.7285,-0.7303,-0.7327,-0.7341,-0.7358,-0.7377,-0.7386,-0.7408,-0.7434,-0.7436,-0.7463,-0.7481,-0.7512,-0.7523,-0.7545,-0.7538,-0.7547,-0.7549,-0.7551,-0.7552,-0.7497,-0.7549,-0.7549,-0.7549,-0.7549,-0.7549,0,-0.7319,-0.733,-0.7352,-0.7377,-0.7396,-0.7391,-0.741,-0.7426,-0.745,-0.7467,-0.7486,-0.7515,-0.7538,-0.7551,-0.7574,-0.7588,-0.7588,-0.7594,-0.7593,-0.7595,-0.7557,-0.7549,-0.7594,-0.7594,-0.7594,-0.7594,-0.7594,-0.7594,-0.7349,-0.7382,-0.7386,-0.7424,-0.7435,-0.7462,-0.7473,-0.7487,-0.75,-0.7532,-0.7551,-0.7559,-0.7574,-0.7597,-0.7618,-0.7621,-0.7629,-0.7636,-0.7639,-0.7603,-0.7598,-0.7594,-0.7586,-0.7638,-0.7638,-0.7675,-0.7675,-0.7675]},{"header":{"parameterUnit":"m.s-1","parameterCategory":1,"la1":30.2991,"la2":30.254,"lo1":-89.0895,"lo2":-89.0444,"dx":0.0017,"dy":0.0017,"nx":28,"ny":28,"refTime":"2022-11-13T15:00:00:Z","depth":0,"parameterNumber":3,"parameterNumberName":"V-component_of_WINDS"},"data":[0,0,0,0,0,0,0,0,0,0,0,0,0,0,0,0,0,0,0,0,0,0,0,0,0,0,0,0,0,0,0,0,0,0,0,0,0,0,0,0,0,0,0,0,0,0,0,0,0,0,0,0,0,0,0,0,0,0,-8.0349,-8.0351,0,-8.0515,-8.0517,-8.0519,-8.0455,-8.0451,-8.0448,-8.0444,-8.0607,-8.0615,-8.0623,0,0,0,0,0,0,0,0,0,0,0,0,0,-7.997,-7.9977,-8.0349,-8.0351,-8.0353,-8.0515,-8.0517,-8.0519,-8.0456,-8.0451,-8.0447,-8.0442,-8.0605,-8.0614,-8.0624,0,0,0,0,0,0,0,0,0,0,0,0,0,-8.0135,-7.998,-8.0349,-8.0341,-8.0342,-8.0515,-8.0517,-8.052,-8.0457,-8.0451,-8.0445,-8.044,-8.0602,-8.0613,-8.0625,-8.0813,0,0,-8.0661,-8.0666,0,0,0,0,0,0,0,0,-8.0126,-8.0149,-8.034,-8.0342,-8.0343,-8.0459,-8.0443,-8.0618,-8.0458,-8.0413,-8.0444,-8.0437,-8.0562,-8.0577,-8.062,-8.082,-8.0827,-8.0662,-8.0669,-8.0674,-8.0678,0,0,0,0,0,0,0,-8.0114,-8.0141,-8.0415,-8.0343,-8.0345,-8.0327,-8.0344,-8.0476,-8.0517,-8.0417,-8.0412,-8.0433,-8.0562,-8.0609,-8.0624,-8.083,-8.0662,-8.0672,-8.068,-8.0684,-8.119,-8.1196,0,0,0,0,0,0,-8.0103,-8.0132,-8.0409,-8.042,-8.0219,-8.0339,-8.0358,-8.0427,-8.0516,-8.0524,-8.0438,-8.043,-8.0592,-8.061,-8.0629,-8.0853,-8.0674,-8.0685,-8.0692,-8.1183,-8.1191,-8.1198,0,0,0,0,0,0,-8.0095,-8.0129,-8.0403,-8.0275,-8.0309,-8.0351,-8.043,-8.0434,-8.0481,-8.0532,-8.0538,-8.0479,-8.0588,-8.0613,-8.0767,-8.0858,-8.0691,-8.0702,-8.1176,-8.1186,-8.1194,-8.1304,0,0,0,0,0,0,-8.0085,-8.0126,-8.02,-8.0277,-8.0316,-8.0541,-8.0436,-8.0441,-8.0502,-8.0493,-8.0572,-8.058,-8.0585,-8.075,-8.0779,-8.0872,-8.0711,-8.1168,-8.118,-8.1191,-8.1293,-8.1316,-8.1337,0,0,0,0,0,-8.0072,-8.0223,-8.0204,-8.0238,-8.0409,-8.0546,-8.0568,-8.0573,-8.051,-8.0583,-8.0616,-8.0577,-8.0844,-8.0767,-8.0799,-8.0896,-8.1162,-8.1177,-8.119,-8.1283,-8.1312,-8.1336,0,0,0,0,0,0,-8.0153,-8.0233,-8.0213,-8.0394,-8.0464,-8.0535,-8.0627,-8.0603,-8.0691,-8.0678,-8.0678,-8.0697,-8.0856,-8.0891,-8.0804,-8.1081,-8.0993,-8.1014,-8.1052,-8.108,-8.1102,-8.1089,-8.0721,0,0,0,0,0,-8.0192,-8.03,-8.0363,-8.0517,-8.0553,-8.0585,-8.0644,-8.0642,-8.0714,-8.0742,-8.0786,-8.0855,-8.0954,-8.1019,-8.1113,-8.1298,-8.1313,-8.138,-8.1402,-8.142,-8.1438,-8.1536,-8.1566,-8.1244,-8.1244,-8.1244,0,0,-8.0274,-8.0331,-8.0398,-8.0534,-8.0588,-8.0697,-8.061,-8.0728,-8.0808,-8.0759,-8.0909,-8.0944,-8.102,-8.1191,-8.1268,-8.1225,-8.153,-8.1438,-8.1452,-8.146,-8.1554,-8.1584,-8.1611,-8.1254,-8.1252,-8.1251,0,0,-8.0479,-8.0534,-8.0667,-8.0723,-8.0807,-8.0827,-8.0859,-8.0934,-8.0956,-8.1106,-8.1072,-8.1165,-8.1336,-8.1392,-8.1443,-8.1668,-8.1635,-8.1698,-8.1812,-8.1908,-8.1934,-8.1956,-8.2035,-8.2063,-8.1716,-8.1717,-8.1717,0,-8.0569,-8.0734,-8.0738,-8.0861,-8.092,-8.0884,-8.1017,-8.1071,-8.118,-8.1221,-8.1172,-8.1386,-8.1435,-8.1617,-8.1672,-8.1714,-8.1749,-8.1689,-8.193,-8.1953,-8.1973,-8.2048,-8.2078,-8.1724,-8.1723,-8.1722,-8.1721,0,-8.084,-8.0954,-8.1052,-8.116,-8.1231,-8.1359,-8.138,-8.1451,-8.1443,-8.1467,-8.1619,-8.1677,-8.1781,-8.1825,-8.1817,-8.2005,-8.1976,-8.1929,-8.184,-8.2011,-8.2081,-8.211,-8.1734,-8.1731,-8.1729,-8.1727,0,0,-8.11,-8.121,-8.1245,-8.1293,-8.1383,-8.147,-8.1594,-8.1699,-8.1759,-8.1835,-8.1938,-8.2083,-8.204,-8.2098,-8.2096,-8.218,-8.2353,-8.2122,-8.2124,-8.2162,-8.2562,-8.2596,-8.2629,-8.2332,-8.2338,-8.2342,-8.2555,0,-8.131,-8.1531,-8.1539,-8.174,-8.1844,-8.1811,-8.1919,-8.1984,-8.201,-8.21,-8.2127,-8.223,-8.2167,-8.2201,-8.2283,-8.2315,-8.2433,-8.2299,-8.2425,-8.243,-8.2406,-8.2666,-8.2703,-8.2901,-8.2582,-8.2587,-8.2591,0,-8.1585,-8.1672,-8.1884,-8.1958,-8.2002,-8.2099,-8.2194,-8.2283,-8.2355,-8.2367,-8.2432,-8.2417,-8.2542,-8.245,-8.262,-8.253,-8.2581,-8.2604,-8.2612,-8.2623,-8.252,-8.2682,-8.2964,-8.2993,-8.2634,-8.2631,-8.2628,0,-8.1751,-8.1921,-8.207,-8.2112,-8.2202,-8.2271,-8.2311,-8.2378,-8.244,-8.2523,-8.2562,-8.2658,-8.271,-8.2783,-8.2793,-8.2726,-8.2964,-8.2873,-8.2975,-8.2975,-8.3026,-8.3023,-8.3319,-8.3062,-8.3062,-8.3061,-8.3061,0,-8.1985,-8.2115,-8.2146,-8.2237,-8.2382,-8.2388,-8.253,-8.2565,-8.2624,-8.272,-8.2696,-8.2785,-8.2795,-8.2886,-8.2895,-8.3034,-8.3057,-8.3069,-8.307,-8.3071,-8.3069,-8.3104,-8.309,-8.3069,-8.3067,-8.3066,-8.3064,0,-8.2195,-8.2221,-8.238,-8.2453,-8.2474,-8.2577,-8.2637,-8.2723,-8.2747,-8.2868,-8.2896,-8.2932,-8.3039,-8.3057,-8.3182,-8.3188,-8.3353,-8.334,-8.333,-8.3327,-8.3428,-8.3418,-8.3756,-8.38,-8.3516,-8.3519,-8.3521,0,-8.2341,-8.2441,-8.2525,-8.2588,-8.2632,-8.2734,-8.2798,-8.2807,-8.2874,-8.2964,-8.3038,-8.3143,-8.3227,-8.3398,-8.3434,-8.3528,-8.3517,-8.3629,-8.353,-8.3528,-8.3516,-8.351,-8.3519,-8.3647,-8.365,-8.3652,-8.3654,0,-8.2598,-8.2606,-8.27,-8.2798,-8.2875,-8.2952,-8.3025,-8.3078,-8.3097,-8.3172,-8.3282,-8.3347,-8.3476,-8.3579,-8.3673,-8.3711,-8.3686,-8.3685,-8.3714,-8.3715,-8.3704,-8.371,-8.3379,-8.3677,-8.3675,-8.3673,-8.3672,-8.3671,-8.278,-8.2866,-8.2939,-8.3044,-8.31,-8.3169,-8.3253,-8.3288,-8.338,-8.3487,-8.3486,-8.3606,-8.3674,-8.3798,-8.3843,-8.3935,-8.3898,-8.394,-8.395,-8.396,-8.3969,-8.3691,-8.3952,-8.3951,-8.3951,-8.395,-8.395,0,-8.3034,-8.3079,-8.3176,-8.3279,-8.3361,-8.3333,-8.3412,-8.3481,-8.3588,-8.3654,-8.3738,-8.3863,-8.3963,-8.4007,-8.4104,-8.417,-8.416,-8.4195,-8.4189,-8.4198,-8.3997,-8.3962,-8.4201,-8.4201,-8.42,-8.42,-8.42,-8.42,-8.3176,-8.3321,-8.3337,-8.3509,-8.3552,-8.3672,-8.3719,-8.3781,-8.3835,-8.3976,-8.406,-8.4089,-8.4146,-8.4247,-8.4336,-8.4346,-8.4382,-8.4422,-8.4427,-8.4238,-8.4212,-8.4188,-8.4155,-8.4431,-8.4431,-8.462,-8.4622,-8.4623]}]]